sat.trackr.live / text

‹ back to catalog

ONEWEB-0492

NORAD 54114 · 2022-138B

PAYLOAD ACTIVE UNKNOWN

§ Identity

Operator
Country
UK
Launch date
2022-10-22
Launch site
SRILR
Launch vehicle
Mass (kg)
RCS (m²)

Purposes: comms

External: N2YO · Heavens-Above · Gunter

§ Orbital elements

Epoch: 2026-05-25T04:29:48.562368Z

Period
109.11 min
Inclination
87.9149°
Eccentricity
0.0001608
Mean motion
13.19729900 rev/d
Perigee alt
1,184.5 km
Apogee alt
1,187.0 km
Semi-major
7,563.9 km
B*
-1.9011e-3
RAAN
309.5538°
Arg perigee
95.0942°
Mean anomaly
265.0374°
Rev number
17,380

§ Raw data

ONEWEB-04921 54114U 22138B   26145.18736762 -.00000748  00000+0 -19011-2 0  99932 54114  87.9149 309.5538 0001608  95.0942 265.0374 13.19729900173809

JSON: /api/v1/satellites/54114 · /tle

For live sub-satellite position, see the globe view (requires WebGL).

§ Visibility from observer

Set your observer location to see the next 7 days of passes ≥ 10°. The values pass through the URL so the page stays shareable.

No JS? Fill the form by hand. The geolocation button needs JavaScript.